Flag for Brazil Weather past 2 weeks in Salvador, Bahia, Brazil

Now
82 °F

Scattered clouds.


Feels Like: 88 °F
Forecast: 75 / 82 °F
Wind: 7 mph from East

Location: Salvador Aeroporto

Current Time: Dec 22, 2014 at 8:48:38 AM

Latest Report: Dec 22, 2014 at 8:00 AM


Visibility: N/A

Pressure: 29.98 "Hg

Humidity: 74%

Dew point: 73 °F

Location of SalvadorLocation

Historic Weather in Salvador — Graph

°F

Salvador temperature yesterday

Maximum temperature yesterday: 84 °F (at 10:00 AM)
Minimum temperature yesterday: 77 °F (at 12:00 AM)
Average temperature yesterday: 80 °F

Past Weeks' High & Low Weather Summary

 TemperatureHumidityPressure
High86 °F (Dec 10, 2:00 PM)100% (Dec 11, 8:00 AM)30.01 "Hg (Dec 11, 8:00 AM)
Low39 °F (Dec 18, 12:00 AM)59% (Dec 10, 2:00 PM)29.83 "Hg (Dec 14, 3:00 PM)
Average78 °F78%29.92 "Hg
* Reported Dec 7 7:00 AM — Dec 22 7:00 AM, Salvador, Weather by CustomWeather, © 2014

Note: Actual official high and low records may vary slightly from our data, if they occured in-between our weather recording intervals... More about our weather records

Advertising

Salvador weather history for previous 24 hours

 ConditionsComfort  
Time TempWeatherWind HumidityBarometerVisibility
7:00 AM
Dec 22
79 °FScattered clouds.3 mph84%29.98 "HgN/A
6:00 AM75 °FPassing clouds.2 mph89%29.95 "HgN/A
5:00 AM75 °FPassing clouds.2 mph83%29.95 "HgN/A
4:00 AM75 °FPassing clouds.2 mph83%29.92 "HgN/A
3:00 AM75 °FPassing clouds.2 mph89%29.92 "HgN/A
2:00 AM77 °FPassing clouds.5 mph83%29.92 "HgN/A
1:00 AM77 °FPassing clouds.8 mph83%29.92 "HgN/A
12:00 AM77 °FPassing clouds.7 mph83%29.95 "HgN/A
11:00 PM
Dec 21
77 °FPassing clouds.8 mph83%29.98 "HgN/A
10:00 PM79 °FPassing clouds.9 mph79%29.98 "HgN/A
9:00 PM79 °FPassing clouds.12 mph79%29.98 "HgN/A
8:00 PM79 °FPassing clouds.9 mph79%29.95 "HgN/A
7:00 PM79 °FPassing clouds.9 mph79%29.92 "HgN/A
6:00 PM79 °FScattered clouds.9 mph79%29.92 "HgN/A
5:00 PM81 °FScattered clouds.14 mph74%29.89 "HgN/A
4:00 PM82 °FScattered clouds.15 mph70%29.92 "HgN/A
3:00 PM82 °FScattered clouds.15 mph70%29.92 "HgN/A
2:00 PM84 °FScattered clouds.14 mph70%29.95 "HgN/A
1:00 PM84 °FScattered clouds.14 mph70%29.95 "HgN/A
12:00 PM84 °FScattered clouds.15 mph66%29.98 "HgN/A
11:00 AM84 °FScattered clouds.14 mph66%30.01 "HgN/A
10:00 AM84 °FScattered clouds.10 mph70%30.01 "HgN/A
9:00 AM82 °FScattered clouds.12 mph70%30.01 "HgN/A
8:00 AM82 °FScattered clouds.12 mph70%29.98 "HgN/A
Weather by CustomWeather, © 2014

See weather overviewHow to use our weather pages